Hourly Data Report for October 25, 2013

All times are specified in Local Standard Time (LST). Add 1 hour to adjust for Daylight Saving Time where and when it is observed.

GRISE FIORD CLIMATE
NUNAVUT

76°25'22.040" N
82°54'08.020" W
44.50 m
2402351
71971
NGC

Download Data

Hourly Data (October 2013)
Hourly Data Report for October 25, 2013
Temp Definition
°C
Dew Point Temp Definition
°C
Rel Hum Definition
%
Wind Dir Definition
10's deg

Wind Spd Definition
km/h
Visibility Definition
km
Stn Press Definition
kPa
Hmdx Definition


Wind Chill Definition


Weather Definition


TIME
00:00 -8.8 -9.7 93 16 2   99.99   -10 LegendNANA
01:00 -8.8 -10.4 88   0   99.97     LegendNANA
02:00 -9.1 -10.6 89 14 2   99.93   -10 LegendNANA
03:00 -8.7 -10.9 84 1 2   99.93   -10 LegendNANA
04:00 -7.4 -12.1 69 5 11   99.91   -12 LegendNANA
05:00 -7.6 -12.1 70 6 13   99.87   -13 LegendNANA
06:00 -7.5 -12.1 70 5 7   99.86   -11 LegendNANA
07:00 -8.0 -11.7 75 15 2   99.88   -9 LegendNANA
08:00 -8.1 -11.8 75 36 4   99.84   -10 LegendNANA
09:00 -8.8 -11.6 80 18 2   99.84   -10 LegendNANA
10:00 -8.7 -11.3 81 14 2   99.82   -10 LegendNANA
11:00 -8.7 -11.6 79 10 4   99.82   -11 LegendNANA
12:00 -9.2 -11.5 83 27 2   99.81   -10 LegendNANA
13:00 -8.9 -11.6 81 18 2   99.83   -10 LegendNANA
14:00 -8.8 -11.3 82 12 4   99.83   -11 LegendNANA
15:00 -8.8 -11.5 81 10 2   99.84   -10 LegendNANA
16:00 -8.5 -11.9 76 22 4   99.86   -11 LegendNANA
17:00 -7.4 -12.2 68 7 13   99.85   -13 LegendNANA
18:00 -7.4 -12.2 68 7 11   99.86   -12 LegendNANA
19:00 -7.6 -12.3 69 33 4   99.89   -10 LegendNANA
20:00 -7.5 -12.2 69 7 4   99.89   -10 LegendNANA
21:00 -7.6 -12.2 70 29 4   99.87   -10 LegendNANA
22:00 -6.8 -12.5 64 7 9   99.84   -11 LegendNANA
23:00 -7.0 -12.2 66 4 7   99.85   -11 LegendNANA

Notes on Data Quality.

Legend

  • E = Estimated
  • M = Missing
  • NA = Not Available
  • ‡ = Partner data that is not subject to review by the National Climate Archives
Date modified: